Simultaneous Nadir Overpasses (SNOs) Predictions

Prediction of SNOs between AQUA and GOES-15 Satellite Orbit:

Table of predicted SNOs for the next 14.0 days since TLE Epoch: 4/21/2012
Index Date Time (AQUA) AQUA Lat,Lon GOES-15 Lat,Lon Distance(km) Time Diff (sec)
1 04/22/2012 10:32:31 -0.10,-134.18 0.04,-134.87 78.35 80
2 04/24/2012 10:20:20 -0.75,-131.22 0.04,-134.94 422.96 80
3 04/24/2012 22:41:45 -0.31,-136.42 -0.03,-134.98 163.54 80
4 04/26/2012 22:29:33 0.29,-133.45 -0.03,-135.04 180.43 80
5 04/27/2012 10:50:49 0.77,-138.62 0.02,-135.04 406.18 80
6 04/29/2012 10:38:37 0.15,-135.65 0.03,-135.10 62.86 80
7 05/01/2012 10:26:26 -0.52,-132.70 0.03,-135.16 279.97 80
8 05/01/2012 22:47:49 -0.59,-137.89 -0.02,-135.19 307.21 80
9 05/03/2012 22:35:38 0.04,-134.93 -0.01,-135.23 34.74 80




NCC Satellite Simultaneous Nadir Overpasses (SNOs) Prediction Service
